Hourly Data Report for October 06, 2013

All times are specified in Local Standard Time (LST). Add 1 hour to adjust for Daylight Saving Time where and when it is observed.

OTTAWA INTL A
ONTARIO

45°19'00.000" N
75°40'00.000" W
114.90 m
6106001
71628
YOW

Download Data

Hourly Data (October 2013)
Hourly Data Report for October 6, 2013
Temp Definition
°C
Dew Point Temp Definition
°C
Rel Hum Definition
%
Wind Dir Definition
10's deg

Wind Spd Definition
km/h
Visibility Definition
km
Stn Press Definition
kPa
Hmdx Definition


Wind Chill Definition


Weather Definition


TIME
00:00 Legend Double Dagger 12.3 6.2 66 6 18 24.1 100.70     LegendNANA
01:00 Legend Double Dagger 11.1 5.9 70 6 17 24.1 100.70     Mostly Cloudy
02:00 Legend Double Dagger 10.6 5.2 69 7 16 24.1 100.66     LegendNANA
03:00 Legend Double Dagger 10.4 3.7 63 6 21 24.1 100.66     LegendNANA
04:00 Legend Double Dagger 9.9 2.1 58 7 23 24.1 100.61     Mostly Cloudy
05:00 Legend Double Dagger 9.6 1.3 56 7 24 24.1 100.64     LegendNANA
06:00 Legend Double Dagger 9.0 1.5 59 7 23 24.1 100.62     LegendNANA
07:00 Legend Double Dagger 8.7 2.3 64 6 21 24.1 100.56     Mostly Cloudy
08:00 Legend Double Dagger 9.3 2.9 64 6 24 24.1 100.54     LegendNANA
09:00 Legend Double Dagger 10.1 3.0 61 7 22 24.1 100.47     LegendNANA
10:00 Legend Double Dagger 10.9 3.0 58 8 28 24.1 100.38     Cloudy
11:00 Legend Double Dagger 10.7 3.1 59 7 27 24.1 100.32     LegendNANA
12:00 Legend Double Dagger 9.1 6.0 81 7 21 12.9 100.22     Rain
13:00 Legend Double Dagger 8.9 7.4 90 8 21 12.9 100.13     Rain
14:00 Legend Double Dagger 9.1 7.9 92 9 28 19.3 100.05     Rain
15:00 Legend Double Dagger 9.5 8.3 92 6 15 19.3 100.02     LegendNANA
16:00 Legend Double Dagger 9.9 9.0 94 7 18 16.1 99.97     Cloudy
17:00 Legend Double Dagger 10.1 9.3 95 7 15 16.1 99.94     LegendNANA
18:00 Legend Double Dagger 10.3 9.5 95 5 17 16.1 99.88     LegendNANA
19:00 Legend Double Dagger 10.4 10.0 97 6 15 16.1 99.85     Cloudy
20:00 Legend Double Dagger 11.0 10.6 97 8 16 8.1 99.79     Fog
21:00 Legend Double Dagger 11.2 10.9 98 9 17 1.2 99.71     Fog
22:00 Legend Double Dagger 11.6 11.3 98 9 20 0.6 99.61     Fog
23:00 Legend Double Dagger 12.3 12.2 99 9 15 0.6 99.55     Fog

Notes on Data Quality.

Legend

  • E = Estimated
  • M = Missing
  • NA = Not Available
  • ‡ = Partner data that is not subject to review by the National Climate Archives
Date modified: